FW4808 Weather Reports


time (UTC)temp
C
wind
direction
speed
KPH
gust
KPH
rain 1hr
cm
rain 24hr
cm
rain mn
cm
humidity
%
barometer
mb
20260510095003 10 0 0.0 0.0 0.00 0.00 0.00 100 1011.8
20260510094503 10 0 0.0 0.0 0.00 0.00 0.00 100 1011.7
20260510094003 10 0 0.0 0.0 0.00 0.00 0.00 100 1011.5
20260510093503 10 0 0.0 0.0 0.00 0.00 0.00 100 1011.4
20260510093217 10 0 0.0 0.0 0.00 0.00 0.00 100 1011.3
20260510092503 10 0 0.0 0.0 0.00 0.00 0.00 100 1011.0
20260510092003 10 0 0.0 0.0 0.00 0.00 0.00 100 1011.0
20260510091504 10 0 0.0 0.0 0.00 0.00 0.00 100 1010.9
20260510091004 10 0 0.0 0.0 0.00 0.00 0.00 100 1010.9
20260510090503 10 0 0.0 0.0 0.00 0.00 0.00 100 1010.8
20260510090217 11 0 0.0 0.0 0.00 0.00 0.00 100 1010.9
20260510085503 11 0 0.0 0.0 0.00 0.00 0.00 100 1010.8
20260510085004 11 0 0.0 0.0 0.00 0.00 0.00 100 1010.7
20260510084718 11 0 0.0 0.0 0.00 0.00 0.00 100 1010.7
20260510084003 11 0 0.0 0.0 0.00 0.00 0.00 100 1010.9
20260510083503 11 0 0.0 0.0 0.00 0.00 0.00 100 1010.9
20260510083004 11 0 0.0 0.0 0.00 0.00 0.00 100 1010.8
20260510082503 11 0 0.0 0.0 0.00 0.00 0.00 100 1010.8
20260510082004 10 0 0.0 0.0 0.00 0.00 0.00 100 1010.9
20260510081503 10 0 0.0 0.0 0.00 0.00 0.00 100 1010.9
20260510081004 10 0 0.0 0.0 0.00 0.00 0.00 100 1011.0
20260510080503 10 156 0.0 3.2 0.00 0.00 0.00 100 1011.0
20260510080004 10 156 0.0 3.2 0.00 0.00 0.00 100 1010.9
20260510075503 10 0 0.0 0.0 0.00 0.00 0.00 100 1011.0
20260510075003 10 0 0.0 0.0 0.00 0.00 0.00 99 1011.0
20260510074503 11 0 0.0 0.0 0.00 0.00 0.00 99 1010.9
20260510074003 11 0 0.0 0.0 0.00 0.00 0.00 99 1010.8
20260510073504 11 16 0.0 3.2 0.00 0.00 0.00 98 1010.7
20260510073004 11 16 0.0 4.8 0.00 0.00 0.00 98 1010.5
20260510072504 11 16 0.0 4.8 0.00 0.00 0.00 98 1010.8
20260510072003 11 0 0.0 0.0 0.00 0.00 0.00 97 1010.8
20260510071503 11 0 0.0 0.0 0.00 0.00 0.00 97 1010.6
20260510071003 11 0 0.0 0.0 0.00 0.00 0.00 97 1010.6
20260510070503 11 0 0.0 0.0 0.00 0.00 0.00 96 1010.6
20260510070218 11 0 0.0 0.0 0.00 0.00 0.00 96 1010.6
20260510065717 11 0 0.0 0.0 0.00 0.00 0.00 96 1010.6
20260510065003 12 0 0.0 0.0 0.00 0.00 0.00 96 1010.5
20260510064503 12 0 0.0 0.0 0.00 0.00 0.00 95 1010.3
20260510064003 12 0 0.0 0.0 0.00 0.00 0.00 95 1010.3
20260510063503 12 0 0.0 0.0 0.00 0.00 0.00 94 1010.2
20260510063218 12 0 0.0 0.0 0.00 0.00 0.00 94 1010.1
20260510062504 12 0 0.0 0.0 0.00 0.00 0.00 94 1010.1
20260510062003 12 0 0.0 0.0 0.00 0.00 0.00 94 1010.1
20260510061717 12 0 0.0 0.0 0.00 0.00 0.00 94 1010.1
20260510061003 12 0 0.0 0.0 0.00 0.00 0.00 94 1010.2
20260510060503 12 0 0.0 0.0 0.00 0.00 0.00 94 1010.2
20260510060004 12 0 0.0 0.0 0.00 0.00 0.00 94 1010.1
20260510055717 12 167 0.0 6.4 0.00 0.00 0.00 94 1010.1
20260510055004 12 166 0.0 6.4 0.00 0.00 0.00 94 1010.1
20260510054503 12 139 0.0 6.4 0.00 0.00 0.00 94 1010.1
20260510054003 12 134 1.6 6.4 0.00 0.00 0.00 94 1010.1
20260510053504 12 139 0.0 6.4 0.00 0.00 0.00 94 1010.1
20260510053003 12 159 0.0 6.4 0.00 0.00 0.00 94 1010.1
20260510052503 12 0 0.0 0.0 0.00 0.00 0.00 93 1010.2
20260510052003 12 162 0.0 11.3 0.00 0.00 0.00 93 1010.1
20260510051504 13 162 0.0 11.3 0.00 0.00 0.00 93 1010.1
20260510051004 13 144 1.6 11.3 0.00 0.00 0.00 93 1010.1
20260510050719 12 146 1.6 11.3 0.00 0.00 0.00 93 1010.1
20260510050217 12 158 0.0 6.4 0.00 0.00 0.00 93 1010.1
20260510045504 13 140 0.0 4.8 0.00 0.00 0.00 93 1010.2
20260510045003 13 140 0.0 4.8 0.00 0.00 0.00 93 1010.2
20260510044504 13 157 0.0 4.8 0.00 0.00 0.00 93 1010.3
20260510044003 13 157 0.0 4.8 0.00 0.00 0.00 92 1010.3
20260510043503 13 0 0.0 0.0 0.00 0.00 0.00 92 1010.3
20260510043003 13 137 0.0 6.4 0.00 0.00 0.00 92 1010.3
20260510042718 13 137 0.0 6.4 0.00 0.00 0.00 92 1010.3
20260510042217 13 133 0.0 3.2 0.00 0.00 0.00 92 1010.3
20260510041718 13 140 0.0 4.8 0.00 0.00 0.00 92 1010.2
20260510041003 13 142 0.0 4.8 0.00 0.00 0.00 92 1010.2
20260510040503 13 149 0.0 3.2 0.00 0.00 0.00 92 1010.3
20260510040004 13 151 0.0 3.2 0.00 0.00 0.00 91 1010.2
20260510035504 13 0 0.0 0.0 0.00 0.00 0.00 91 1010.2
20260510035003 13 0 0.0 0.0 0.00 0.00 0.00 91 1010.2
20260510034718 13 0 0.0 0.0 0.00 0.00 0.00 91 1010.2
20260510034217 13 0 0.0 0.0 0.00 0.00 0.00 91 1010.2
20260510033503 13 0 0.0 0.0 0.00 0.00 0.00 90 1010.3
20260510033004 13 0 0.0 0.0 0.00 0.00 0.00 90 1010.3
20260510032503 13 0 0.0 0.0 0.00 0.00 0.00 89 1010.3
20260510032003 13 0 0.0 0.0 0.00 0.00 0.00 89 1010.3
20260510031718 13 0 0.0 0.0 0.00 0.00 0.00 89 1010.3
20260510031219 13 0 0.0 0.0 0.00 0.00 0.00 89 1010.3
20260510030504 13 0 0.0 0.0 0.00 0.00 0.00 88 1010.3
20260510030003 13 142 0.0 4.8 0.00 0.00 0.00 88 1010.3
20260510025503 14 137 1.6 9.7 0.00 0.00 0.00 88 1010.2
20260510025004 14 143 1.6 9.7 0.00 0.00 0.00 87 1010.2
20260510024504 14 155 0.0 8.0 0.00 0.00 0.00 87 1010.1
20260510024003 14 137 1.6 11.3 0.00 0.00 0.00 87 1010.2
20260510023718 14 137 1.6 11.3 0.00 0.00 0.00 86 1010.0
20260510023003 14 134 1.6 9.7 0.00 0.00 0.00 86 1010.0
20260510022504 14 133 1.6 9.7 0.00 0.00 0.00 85 1010.0
20260510022003 14 137 1.6 11.3 0.00 0.00 0.00 85 1009.9
20260510021503 14 139 3.2 12.9 0.00 0.00 0.00 85 1009.9
20260510021003 14 139 3.2 19.3 0.00 0.00 0.00 84 1009.8
20260510020503 15 138 3.2 19.3 0.00 0.00 0.00 84 1009.7
20260510020004 15 138 3.2 9.7 0.00 0.00 0.00 84 1009.8
20260510015503 15 138 1.6 11.3 0.00 0.00 0.00 84 1009.7
20260510015003 15 138 1.6 11.3 0.00 0.00 0.00 84 1009.7
20260510014503 15 138 1.6 9.7 0.00 0.00 0.00 84 1009.7
20260510014003 15 130 0.0 4.8 0.00 0.00 0.00 83 1009.7
20260510013504 15 0 0.0 0.0 0.00 0.00 0.00 83 1009.7
20260510013004 15 134 0.0 9.7 0.00 0.00 0.00 82 1009.7
20260510012503 15 142 0.0 9.7 0.00 0.00 0.00 82 1009.6
20260510012218 15 140 1.6 9.7 0.00 0.00 0.00 82 1009.5
20260510011504 15 138 1.6 9.7 0.00 0.00 0.00 81 1009.4
20260510011003 15 137 1.6 8.0 0.00 0.00 0.00 81 1009.3
20260510010717 15 136 3.2 8.0 0.00 0.00 0.00 80 1009.3
20260510010004 15 138 3.2 12.9 0.00 0.00 0.00 79 1009.2
20260510005504 15 138 1.6 14.5 0.00 0.00 0.00 79 1009.0
20260510005003 15 138 3.2 14.5 0.00 0.00 0.00 78 1009.0
20260510004503 15 137 3.2 14.5 0.00 0.00 0.00 77 1008.9
20260510004004 16 138 3.2 11.3 0.00 0.00 0.00 76 1008.7
20260510003503 16 138 3.2 11.3 0.00 0.00 0.00 75 1008.8
20260510003003 16 136 3.2 11.3 0.00 0.00 0.00 74 1008.8
20260510002503 16 139 1.6 11.3 0.00 0.00 0.00 73 1008.7
20260510002218 16 141 1.6 6.4 0.00 0.00 0.00 73 1008.7
20260510001717 16 147 1.6 11.3 0.00 0.00 0.00 72 1008.7
20260510001003 16 144 1.6 9.7 0.00 0.00 0.00 71 1008.7
20260510000717 16 137 1.6 9.7 0.00 0.00 0.00 71 1008.7
20260510000004 16 140 0.0 9.7 0.00 0.00 0.00 70 1008.7
20260509235503 17 140 0.0 4.8 0.00 0.00 0.00 70 1008.7
20260509235003 17 140 0.0 6.4 0.00 0.00 0.00 69 1008.8
20260509234503 17 141 0.0 6.4 0.00 0.00 0.00 69 1008.8
20260509234218 17 144 0.0 6.4 0.00 0.00 0.00 68 1008.8
20260509233503 17 77 0.0 3.2 0.00 0.00 0.00 68 1008.7
20260509233003 17 76 0.0 3.2 0.00 0.00 0.00 67 1008.7
20260509232503 17 117 0.0 3.2 0.00 0.00 0.00 67 1008.6
20260509232003 17 80 0.0 6.4 0.00 0.00 0.00 67 1008.7
20260509231716 17 69 0.0 6.4 0.00 0.00 0.00 66 1008.6
20260509231004 17 0 0.0 0.0 0.00 0.00 0.00 66 1008.6
20260509230503 17 0 0.0 0.0 0.00 0.00 0.00 65 1008.6
20260509230003 17 0 0.0 0.0 0.00 0.00 0.00 65 1008.6
20260509225504 17 0 0.0 0.0 0.00 0.00 0.00 65 1008.7
20260509225004 17 0 0.0 0.0 0.00 0.00 0.00 65 1008.6
20260509224503 17 153 0.0 1.6 0.00 0.00 0.00 65 1008.6
20260509224003 17 141 0.0 4.8 0.00 0.00 0.00 65 1008.6
20260509223503 17 65 0.0 4.8 0.00 0.00 0.00 65 1008.7
20260509223219 17 13 0.0 4.8 0.00 0.00 0.00 65 1008.7
20260509222503 17 24 0.0 6.4 0.00 0.00 0.00 65 1008.6
20260509222003 18 40 0.0 4.8 0.00 0.00 0.00 64 1008.6
20260509221503 17 123 0.0 4.8 0.00 0.00 0.00 65 1008.5
20260509221004 17 141 0.0 4.8 0.00 0.00 0.00 64 1008.5
20260509220504 17 167 0.0 3.2 0.00 0.00 0.00 65 1008.5
20260509220004 17 0 0.0 0.0 0.00 0.00 0.00 65 1008.5
20260509215503 17 40 0.0 6.4 0.00 0.00 0.00 65 1008.6
20260509215003 17 47 0.0 8.0 0.00 0.00 0.00 65 1008.7
20260509214718 17 48 1.6 9.7 0.00 0.00 0.00 65 1008.7
20260509214003 17 50 1.6 12.9 0.00 0.00 0.00 65 1008.7
20260509213503 17 52 0.0 12.9 0.00 0.00 0.00 64 1008.7
20260509213003 17 45 0.0 4.8 0.00 0.00 0.00 64 1008.8
20260509212503 17 54 0.0 4.8 0.00 0.00 0.00 64 1008.8
20260509212003 17 130 0.0 3.2 0.00 0.00 0.00 64 1008.9
20260509211503 17 129 0.0 3.2 0.00 0.00 0.00 65 1008.8
20260509211003 17 46 1.6 12.9 0.00 0.00 0.00 65 1008.8
20260509210503 17 43 1.6 12.9 0.00 0.00 0.00 65 1008.9
20260509210004 17 43 1.6 9.7 0.00 0.00 0.00 64 1008.9
20260509205504 17 51 0.0 9.7 0.00 0.00 0.00 64 1008.8
20260509205004 17 53 0.0 4.8 0.00 0.00 0.00 63 1008.7
20260509204718 17 55 0.0 4.8 0.00 0.00 0.00 62 1008.7
20260509204003 17 52 0.0 6.4 0.00 0.00 0.00 63 1008.7
20260509203503 17 49 0.0 6.4 0.00 0.00 0.00 63 1008.8
20260509203003 17 36 0.0 4.8 0.00 0.00 0.00 63 1008.7
20260509202503 17 38 1.6 6.4 0.00 0.00 0.00 62 1008.7
20260509202003 17 49 0.0 6.4 0.00 0.00 0.00 62 1008.7
20260509201717 18 89 0.0 6.4 0.00 0.00 0.00 62 1008.8
20260509201003 17 137 1.6 8.0 0.00 0.00 0.00 61 1008.8
20260509200503 17 143 0.0 6.4 0.00 0.00 0.00 61 1008.8
20260509200004 17 138 0.0 6.4 0.00 0.00 0.00 62 1008.8
20260509195503 17 135 0.0 6.4 0.00 0.00 0.00 62 1008.9
20260509195003 17 140 0.0 6.4 0.00 0.00 0.00 62 1009.0
20260509194503 17 140 0.0 6.4 0.00 0.00 0.00 62 1009.2
20260509194218 17 143 0.0 6.4 0.00 0.00 0.00 62 1009.1
20260509193717 17 137 0.0 4.8 0.00 0.00 0.00 62 1009.1
20260509193004 17 139 1.6 11.3 0.00 0.00 0.00 62 1009.1
20260509192717 17 140 1.6 11.3 0.00 0.00 0.00 62 1009.0
20260509192004 17 137 0.0 6.4 0.00 0.00 0.00 62 1009.2
20260509191503 17 125 0.0 6.4 0.00 0.00 0.00 62 1009.2
20260509191003 17 135 1.6 9.7 0.00 0.00 0.00 60 1009.3
20260509190503 17 139 1.6 11.3 0.00 0.00 0.00 60 1009.3
20260509190003 17 147 1.6 11.3 0.00 0.00 0.00 61 1009.4
20260509185503 17 141 3.2 14.5 0.00 0.00 0.00 61 1009.3
20260509185003 17 139 1.6 14.5 0.00 0.00 0.00 60 1009.4
20260509184503 17 137 1.6 14.5 0.00 0.00 0.00 62 1009.4
20260509184004 17 134 1.6 14.5 0.00 0.00 0.00 61 1009.4
20260509183717 17 122 1.6 8.0 0.00 0.00 0.00 64 1009.3
20260509183003 16 145 1.6 9.7 0.00 0.00 0.00 64 1009.5
20260509182504 16 152 0.0 6.4 0.00 0.00 0.00 65 1009.7
20260509182003 16 101 0.0 4.8 0.00 0.00 0.00 69 1010.0
20260509181503 16 76 0.0 4.8 0.00 0.00 0.00 70 1010.0
20260509181003 15 17 0.0 6.4 0.00 0.00 0.00 70 1010.0
20260509180503 15 13 0.0 6.4 0.00 0.00 0.00 69 1010.2
20260509180004 15 20 0.0 4.8 0.00 0.00 0.00 69 1010.4
20260509175503 15 143 0.0 4.8 0.00 0.00 0.00 70 1010.5
20260509175217 15 143 0.0 4.8 0.00 0.00 0.00 72 1010.4
20260509174504 15 0 0.0 0.0 0.00 0.00 0.00 70 1010.6
20260509174004 15 0 0.0 0.0 0.00 0.00 0.00 66 1010.8
20260509173504 15 0 0.0 0.0 0.00 0.00 0.00 64 1010.9
20260509173003 15 0 0.0 0.0 0.00 0.00 0.00 64 1011.0
20260509172718 15 0 0.0 0.0 0.00 0.00 0.00 64 1011.0
20260509172217 15 0 0.0 0.0 0.00 0.00 0.00 64 1010.8
20260509171503 15 0 0.0 0.0 0.00 0.00 0.00 63 1010.8
20260509171217 15 137 0.0 6.4 0.00 0.00 0.00 64 1010.7
20260509170504 15 87 0.0 6.4 0.00 0.00 0.00 64 1010.6
20260509170217 15 27 0.0 4.8 0.00 0.00 0.00 64 1010.6
20260509165503 15 26 0.0 4.8 0.00 0.00 0.00 63 1010.9
20260509165217 15 22 0.0 1.6 0.00 0.00 0.00 64 1010.9
20260509164504 15 23 0.0 3.2 0.00 0.00 0.00 63 1010.9
20260509164003 15 23 0.0 6.4 0.00 0.00 0.00 62 1011.0
20260509163504 16 23 0.0 6.4 0.00 0.00 0.00 62 1010.9
20260509163003 16 0 0.0 0.0 0.00 0.00 0.00 62 1010.9
20260509162503 16 0 0.0 0.0 0.00 0.00 0.00 62 1011.0
20260509162004 16 0 0.0 0.0 0.00 0.00 0.00 62 1011.0
20260509161718 16 0 0.0 0.0 0.00 0.00 0.00 61 1011.0
20260509161217 16 0 0.0 0.0 0.00 0.00 0.00 61 1011.0
20260509160503 16 265 0.0 6.4 0.00 0.00 0.00 60 1010.9
20260509160219 16 268 0.0 6.4 0.00 0.00 0.00 62 1011.0
20260509155503 16 331 0.0 3.2 0.00 0.00 0.00 60 1011.0
20260509155217 16 297 0.0 6.4 0.00 0.00 0.00 60 1010.9
20260509154504 16 289 0.0 6.4 0.00 0.00 0.00 59 1011.0
20260509154216 16 289 0.0 6.4 0.00 0.00 0.00 59 1011.0
20260509153503 15 233 0.0 1.6 0.00 0.00 0.00 62 1011.1
20260509153003 15 0 0.0 0.0 0.00 0.00 0.00 63 1011.2
20260509152718 15 0 0.0 0.0 0.00 0.00 0.00 66 1011.3
20260509152218 15 0 0.0 0.0 0.00 0.00 0.00 67 1011.3
20260509151717 14 0 0.0 0.0 0.00 0.00 0.00 79 1011.4
20260509151004 13 152 1.6 6.4 0.00 0.00 0.00 78 1011.5
20260509150717 13 148 1.6 6.4 0.00 0.00 0.00 77 1011.5
20260509150003 13 129 0.0 6.4 0.00 0.00 0.00 75 1011.3
20260509145504 13 121 0.0 4.8 0.00 0.00 0.00 75 1011.3
20260509145004 13 121 0.0 4.8 0.00 0.00 0.00 73 1011.3
20260509144717 13 0 0.0 0.0 0.00 0.00 0.00 73 1011.2
20260509144004 13 0 0.0 0.0 0.00 0.00 0.00 71 1011.4
20260509143503 13 0 0.0 0.0 0.00 0.00 0.00 68 1011.3
20260509143004 13 0 0.0 0.0 0.00 0.00 0.00 65 1011.3
20260509142504 14 0 0.0 0.0 0.00 0.00 0.00 63 1011.4
20260509142003 14 0 0.0 0.0 0.00 0.00 0.00 64 1011.3
20260509141503 14 0 0.0 0.0 0.00 0.00 0.00 65 1011.4
20260509141004 14 0 0.0 0.0 0.00 0.00 0.00 64 1011.3
20260509140717 14 0 0.0 0.0 0.00 0.00 0.00 64 1011.2
20260509140004 14 0 0.0 0.0 0.00 0.00 0.00 63 1011.2
20260509135503 14 0 0.0 0.0 0.00 0.00 0.00 64 1011.2
20260509135003 14 0 0.0 0.0 0.00 0.00 0.00 63 1011.3
20260509134503 14 0 0.0 0.0 0.00 0.00 0.00 62 1011.0
20260509134003 14 0 0.0 0.0 0.00 0.00 0.00 62 1011.1
20260509133717 14 0 0.0 0.0 0.00 0.00 0.00 62 1011.1
20260509133004 13 0 0.0 0.0 0.00 0.00 0.00 62 1011.0
20260509132503 13 0 0.0 0.0 0.00 0.00 0.00 63 1010.9
20260509132003 14 0 0.0 0.0 0.00 0.00 0.00 63 1010.8
20260509131503 14 0 0.0 0.0 0.00 0.00 0.00 62 1010.9
20260509131003 14 0 0.0 0.0 0.00 0.00 0.00 62 1011.0
20260509130503 14 168 0.0 1.6 0.00 0.00 0.00 62 1011.1
20260509130004 14 170 0.0 1.6 0.00 0.00 0.00 62 1011.0
20260509125503 14 174 0.0 1.6 0.00 0.00 0.00 62 1011.0
20260509125003 14 153 0.0 3.2 0.00 0.00 0.00 62 1011.0
20260509124503 14 153 0.0 3.2 0.00 0.00 0.00 61 1010.9
20260509124004 14 0 0.0 0.0 0.00 0.00 0.00 60 1010.9
20260509123503 14 172 0.0 6.4 0.00 0.00 0.00 61 1010.9
20260509123003 13 175 0.0 6.4 0.00 0.00 0.00 60 1011.0
20260509122504 13 186 0.0 8.0 0.00 0.00 0.00 60 1010.9
20260509122004 13 188 0.0 8.0 0.00 0.00 0.00 59 1011.0
20260509121503 14 0 0.0 0.0 0.00 0.00 0.00 59 1011.1
20260509121004 13 0 0.0 0.0 0.00 0.00 0.00 59 1011.0
20260509120503 13 182 0.0 1.6 0.00 0.00 0.00 59 1011.1
20260509120004 13 183 0.0 8.0 0.00 0.00 0.00 60 1011.0
20260509115503 13 183 0.0 8.0 0.00 0.00 0.00 60 1011.1
20260509115004 13 0 0.0 0.0 0.00 0.00 0.00 61 1011.0
20260509114503 13 0 0.0 0.0 0.00 0.00 0.00 61 1010.9
20260509114217 13 0 0.0 0.0 0.00 0.00 0.00 61 1010.9
20260509113503 13 0 0.0 0.0 0.00 0.00 0.00 62 1010.9
20260509113003 13 0 0.0 0.0 0.00 0.00 0.00 61 1010.8
20260509112503 13 0 0.0 0.0 0.00 0.00 0.00 61 1010.6
20260509112003 13 0 0.0 0.0 0.00 0.00 0.00 62 1010.5
20260509111503 13 0 0.0 0.0 0.00 0.00 0.00 62 1010.4
20260509111003 13 0 0.0 0.0 0.00 0.00 0.00 62 1010.5
20260509110718 13 0 0.0 0.0 0.00 0.00 0.00 62 1010.4
20260509110217 12 0 0.0 0.0 0.00 0.00 0.00 61 1010.3
20260509105503 12 0 0.0 0.0 0.00 0.00 0.00 61 1010.2
20260509105003 12 0 0.0 0.0 0.00 0.00 0.00 61 1010.2
20260509104504 12 0 0.0 0.0 0.00 0.00 0.00 61 1010.3
20260509104003 12 0 0.0 0.0 0.00 0.00 0.00 62 1010.3
20260509103504 12 0 0.0 0.0 0.00 0.00 0.00 62 1010.3
20260509103004 12 0 0.0 0.0 0.00 0.00 0.00 62 1010.3
20260509102718 12 0 0.0 0.0 0.00 0.00 0.00 62 1010.3
20260509102219 12 0 0.0 0.0 0.00 0.00 0.00 62 1010.3
20260509101503 12 0 0.0 0.0 0.00 0.00 0.00 62 1010.3
20260509101003 12 0 0.0 0.0 0.00 0.00 0.00 61 1010.2
20260509100503 12 0 0.0 0.0 0.00 0.00 0.00 61 1010.2
20260509100004 12 0 0.0 0.0 0.00 0.00 0.00 61 1010.1
20260509095504 12 0 0.0 0.0 0.00 0.00 0.00 61 1010.2